| time (UTC) | temp C | wind direction | speed KPH | gust KPH | rain 1hr cm | rain 24hr cm | rain mn cm | humidity % | barometer mb |
| 20260508134527 | 12 | 227 | 0.0 | 12.9 | 0.00 | 0.00 | 0.00 | 62 | 1014.4 |
| 20260508133016 | 11 | 184 | 1.6 | 11.3 | 0.00 | 0.00 | 0.00 | 65 | 1014.3 |
| 20260508131513 | 11 | 201 | 0.0 | 0.0 | 0.00 | 0.00 | 0.00 | 65 | 1014.5 |
| 20260508130010 | 10 | 242 | 0.0 | 1.6 | 0.00 | 0.00 | 0.00 | 70 | 1014.4 |
| 20260508124511 | 9 | 170 | 0.0 | 1.6 | 0.00 | 0.00 | 0.00 | 72 | 1014.2 |
| 20260508123004 | 8 | 199 | 0.0 | 9.7 | 0.00 | 0.00 | 0.00 | 72 | 1014.1 |
| 20260508121503 | 8 | 198 | 0.0 | 6.4 | 0.00 | 0.00 | 0.00 | 72 | 1014.2 |
| 20260508120002 | 8 | 209 | 0.0 | 4.8 | 0.00 | 0.00 | 0.00 | 72 | 1014.2 |
| 20260508114503 | 8 | 257 | 0.0 | 0.0 | 0.00 | 0.00 | 0.00 | 74 | 1014.1 |
| 20260508113001 | 7 | 200 | 0.0 | 0.0 | 0.00 | 0.00 | 0.00 | 75 | 1014.0 |
| 20260508111501 | 7 | 204 | 0.0 | 0.0 | 0.00 | 0.00 | 0.00 | 75 | 1013.9 |
| 20260508110100 | 7 | 185 | 0.0 | 0.0 | 0.00 | 0.00 | 0.00 | 75 | 1013.9 |
| 20260508104606 | 7 | 180 | 0.0 | 0.0 | 0.00 | 0.00 | 0.00 | 75 | 1013.7 |
| 20260508101538 | 6 | 175 | 0.0 | 0.0 | 0.00 | 0.00 | 0.00 | 75 | 1013.4 |
| 20260508100037 | 7 | 181 | 0.0 | 0.0 | 0.00 | 0.00 | 0.00 | 75 | 1013.3 |
| 20260508094553 | 6 | 209 | 0.0 | 0.0 | 0.00 | 0.00 | 0.00 | 77 | 1013.5 |
| 20260508093036 | 6 | 218 | 0.0 | 0.0 | 0.00 | 0.00 | 0.00 | 77 | 1013.6 |
| 20260508091540 | 6 | 218 | 0.0 | 0.0 | 0.00 | 0.00 | 0.00 | 77 | 1013.7 |
| 20260508090032 | 7 | 219 | 0.0 | 0.0 | 0.00 | 0.00 | 0.00 | 76 | 1013.6 |
| 20260508084531 | 7 | 263 | 0.0 | 0.0 | 0.00 | 0.00 | 0.00 | 76 | 1013.6 |
| 20260508083030 | 7 | 263 | 0.0 | 0.0 | 0.00 | 0.00 | 0.00 | 77 | 1013.4 |
| 20260508081555 | 7 | 263 | 0.0 | 0.0 | 0.00 | 0.00 | 0.00 | 77 | 1013.5 |
| 20260508080026 | 7 | 263 | 0.0 | 0.0 | 0.00 | 0.00 | 0.00 | 76 | 1013.6 |
| 20260508074525 | 7 | 263 | 0.0 | 0.0 | 0.00 | 0.00 | 0.00 | 76 | 1013.7 |
| 20260508073023 | 8 | 263 | 0.0 | 0.0 | 0.00 | 0.00 | 0.00 | 76 | 1013.7 |
| 20260508071536 | 8 | 263 | 0.0 | 0.0 | 0.00 | 0.00 | 0.00 | 76 | 1014.0 |
| 20260508070021 | 8 | 263 | 0.0 | 0.0 | 0.00 | 0.00 | 0.00 | 75 | 1014.0 |
| 20260508064520 | 8 | 263 | 0.0 | 0.0 | 0.00 | 0.00 | 0.00 | 74 | 1014.2 |
| 20260508063031 | 8 | 263 | 0.0 | 0.0 | 0.00 | 0.00 | 0.00 | 71 | 1014.7 |
| 20260508061519 | 8 | 331 | 0.0 | 0.0 | 0.00 | 0.00 | 0.00 | 70 | 1014.9 |
| 20260508060016 | 8 | 292 | 0.0 | 0.0 | 0.00 | 0.00 | 0.00 | 68 | 1014.7 |
| 20260508054515 | 8 | 183 | 0.0 | 0.0 | 0.00 | 0.00 | 0.00 | 69 | 1014.0 |
| 20260508053012 | 8 | 227 | 0.0 | 0.0 | 0.00 | 0.00 | 0.00 | 71 | 1014.3 |
| 20260508051509 | 7 | 227 | 0.0 | 0.0 | 0.00 | 0.00 | 0.00 | 74 | 1014.2 |
| 20260508050008 | 7 | 288 | 0.0 | 0.0 | 0.00 | 0.00 | 0.00 | 75 | 1014.2 |
| 20260508044507 | 7 | 288 | 0.0 | 0.0 | 0.00 | 0.00 | 0.00 | 76 | 1014.3 |
| 20260508043009 | 7 | 288 | 0.0 | 0.0 | 0.00 | 0.00 | 0.00 | 76 | 1014.5 |
| 20260508041504 | 7 | 288 | 0.0 | 0.0 | 0.00 | 0.00 | 0.00 | 74 | 1014.3 |
| 20260508040104 | 7 | 288 | 0.0 | 0.0 | 0.00 | 0.00 | 0.00 | 74 | 1014.4 |
| 20260508034600 | 7 | 288 | 0.0 | 0.0 | 0.00 | 0.00 | 0.00 | 75 | 1014.3 |
| 20260508033100 | 7 | 288 | 0.0 | 0.0 | 0.00 | 0.00 | 0.00 | 76 | 1014.5 |
| 20260508031559 | 7 | 288 | 0.0 | 0.0 | 0.00 | 0.00 | 0.00 | 73 | 1014.3 |
| 20260508030103 | 6 | 288 | 0.0 | 0.0 | 0.00 | 0.00 | 0.00 | 75 | 1014.4 |
| 20260508024557 | 7 | 288 | 0.0 | 0.0 | 0.00 | 0.00 | 0.00 | 76 | 1014.4 |
| 20260508023059 | 7 | 288 | 0.0 | 0.0 | 0.00 | 0.00 | 0.00 | 73 | 1014.3 |
| 20260508021557 | 7 | 288 | 0.0 | 0.0 | 0.00 | 0.00 | 0.00 | 75 | 1014.5 |
| 20260508014557 | 7 | 288 | 0.0 | 0.0 | 0.00 | 0.00 | 0.00 | 73 | 1014.4 |
| 20260508013054 | 8 | 288 | 0.0 | 0.0 | 0.00 | 0.00 | 0.00 | 68 | 1014.3 |
| 20260508011553 | 8 | 288 | 0.0 | 0.0 | 0.00 | 0.00 | 0.00 | 64 | 1014.1 |
| 20260508010052 | 10 | 288 | 0.0 | 0.0 | 0.00 | 0.00 | 0.00 | 62 | 1014.1 |
| 20260508004555 | 10 | 288 | 0.0 | 0.0 | 0.00 | 0.00 | 0.00 | 58 | 1014.1 |
| 20260508003051 | 11 | 288 | 0.0 | 0.0 | 0.00 | 0.00 | 0.00 | 56 | 1013.9 |
| 20260508001550 | 12 | 288 | 0.0 | 0.0 | 0.00 | 0.00 | 0.00 | 51 | 1013.8 |
| 20260508000051 | 12 | 288 | 0.0 | 0.0 | 0.00 | 0.00 | 0.00 | 46 | 1013.7 |
| 20260507234550 | 13 | 287 | 0.0 | 0.0 | 0.00 | 0.00 | 0.00 | 45 | 1013.6 |
| 20260507233049 | 13 | 294 | 0.0 | 4.8 | 0.00 | 0.00 | 0.00 | 43 | 1013.6 |
| 20260507231553 | 13 | 294 | 0.0 | 4.8 | 0.00 | 0.00 | 0.00 | 45 | 1013.5 |
| 20260507230051 | 13 | 294 | 0.0 | 12.9 | 0.00 | 0.00 | 0.00 | 42 | 1013.5 |
| 20260507224550 | 13 | 300 | 0.0 | 1.6 | 0.00 | 0.00 | 0.00 | 43 | 1013.7 |
| 20260507223047 | 13 | 9 | 0.0 | 6.4 | 0.00 | 0.00 | 0.00 | 43 | 1013.8 |
| 20260507221545 | 13 | 300 | 0.0 | 8.0 | 0.00 | 0.00 | 0.00 | 43 | 1013.8 |
| 20260507220045 | 13 | 321 | 0.0 | 6.4 | 0.00 | 0.00 | 0.00 | 41 | 1013.9 |
| 20260507214600 | 13 | 301 | 0.0 | 14.5 | 0.00 | 0.00 | 0.00 | 40 | 1013.6 |
| 20260507213045 | 13 | 287 | 0.0 | 12.9 | 0.00 | 0.00 | 0.00 | 46 | 1013.5 |
| 20260507211543 | 13 | 310 | 3.2 | 16.1 | 0.00 | 0.00 | 0.00 | 41 | 1013.5 |
| 20260507210040 | 13 | 294 | 0.0 | 12.9 | 0.00 | 0.00 | 0.00 | 45 | 1013.3 |
| 20260507204539 | 13 | 309 | 3.2 | 12.9 | 0.00 | 0.00 | 0.00 | 46 | 1013.4 |
| 20260507203047 | 12 | 301 | 3.2 | 9.7 | 0.00 | 0.00 | 0.00 | 47 | 1013.3 |
| 20260507201536 | 13 | 259 | 0.0 | 8.0 | 0.00 | 0.00 | 0.00 | 46 | 1013.4 |
| 20260507200043 | 12 | 313 | 0.0 | 8.0 | 0.00 | 0.00 | 0.00 | 48 | 1013.5 |
| 20260507194534 | 13 | 300 | 0.0 | 8.0 | 0.00 | 0.00 | 0.00 | 49 | 1013.4 |
| 20260507193033 | 13 | 279 | 3.2 | 14.5 | 0.00 | 0.00 | 0.00 | 44 | 1013.5 |
| 20260507191530 | 13 | 311 | 1.6 | 9.7 | 0.00 | 0.00 | 0.00 | 51 | 1013.4 |
| 20260507190030 | 12 | 250 | 4.8 | 12.9 | 0.00 | 0.00 | 0.00 | 49 | 1013.7 |
| 20260507184528 | 13 | 273 | 0.0 | 11.3 | 0.00 | 0.00 | 0.00 | 49 | 1013.6 |
| 20260507183030 | 13 | 248 | 1.6 | 16.1 | 0.00 | 0.00 | 0.00 | 49 | 1013.7 |
| 20260507181530 | 12 | 298 | 0.0 | 12.9 | 0.00 | 0.00 | 0.00 | 53 | 1013.4 |
| 20260507180124 | 12 | 299 | 1.6 | 12.9 | 0.00 | 0.00 | 0.00 | 53 | 1013.6 |
| 20260507174522 | 12 | 315 | 3.2 | 9.7 | 0.00 | 0.00 | 0.00 | 50 | 1013.8 |
| 20260507173030 | 12 | 290 | 0.0 | 16.1 | 0.00 | 0.00 | 0.00 | 50 | 1014.0 |
| 20260507171520 | 12 | 234 | 3.2 | 9.7 | 0.00 | 0.00 | 0.00 | 48 | 1014.2 |
| 20260507170018 | 12 | 275 | 1.6 | 12.9 | 0.00 | 0.00 | 0.00 | 48 | 1014.4 |
| 20260507164519 | 12 | 300 | 3.2 | 14.5 | 0.00 | 0.00 | 0.00 | 47 | 1014.2 |
| 20260507163016 | 11 | 196 | 0.0 | 14.5 | 0.00 | 0.00 | 0.00 | 49 | 1014.4 |
| 20260507161519 | 11 | 231 | 3.2 | 20.9 | 0.00 | 0.00 | 0.00 | 47 | 1014.3 |
| 20260507160017 | 11 | 227 | 0.0 | 12.9 | 0.00 | 0.00 | 0.00 | 53 | 1014.3 |
| 20260507154513 | 11 | 234 | 0.0 | 3.2 | 0.00 | 0.00 | 0.00 | 53 | 1014.2 |
| 20260507153010 | 11 | 317 | 0.0 | 19.3 | 0.00 | 0.00 | 0.00 | 51 | 1014.1 |
| 20260507151509 | 11 | 272 | 0.0 | 8.0 | 0.00 | 0.00 | 0.00 | 54 | 1014.1 |
| 20260507150019 | 10 | 331 | 0.0 | 11.3 | 0.00 | 0.00 | 0.00 | 57 | 1014.2 |
| 20260507144518 | 10 | 273 | 0.0 | 6.4 | 0.00 | 0.00 | 0.00 | 56 | 1014.3 |
| 20260507143005 | 10 | 283 | 0.0 | 3.2 | 0.00 | 0.00 | 0.00 | 58 | 1014.4 |
| 20260507141502 | 10 | 319 | 0.0 | 3.2 | 0.00 | 0.00 | 0.00 | 60 | 1014.5 |
| 20260507140001 | 10 | 317 | 0.0 | 9.7 | 0.00 | 0.00 | 0.00 | 60 | 1014.4 |